OBJECT M

基本信息
目录编号:
69880
目录名称:
OBJECT M
国际标识:
2026-156M
轨道中心:
EARTH
物体状态:
在轨
发射日期:
2026-07-07 UTC
国别:
(TBD)
轨道信息
数据来源: 国际轨道数据
星历时间: 2026-09-04T23:56:34+0800
半长轴: 6972.418km
偏心率: 0.0003262
轨道倾角: 97.739°
近地点辐角: 293.605°
升交点赤经: 147.008°
平近点角: 66.483°
近地点: 592.006km
远地点: 596.556km
周期: 96.568分钟
每日圈数: 14.911719
详细信息
发射场:
AFWTR
轨道高度:
LEO
数据来源:
AOE Integration Group
参考系:
TEME
时间系统:
UTC
历元类型:
SGP4
2D轨道图
3D轨道图
轨道高度分析图
轨道倾角分析图
轨道综合分析图
查看轨道综合分析图